Bonaire, Netherlands

4:08 PM AST on September 20, 2019 (GMT -0400)
Flamingo

Weather History for TNCB - August, 2019

Change the Weather History Date:

Sunday, August 25, 2019

  Actual Average Record
Temperature  
Mean Temperature 86 °F -  
Max Temperature 89 °F 89 °F 93 °F (1998)
Min Temperature 82 °F 82 °F 77 °F (2011)
Cooling Degree Days 20    
Growing Degree Days 36 (Base 50)    
Moisture  
Dew Point 75 °F    
Average Humidity 72    
Maximum Humidity 84    
Minimum Humidity 59    
Precipitation  
Precipitation 0.00 in - - ()
Sea Level Pressure  
Sea Level Pressure 29.91 in    
Wind  
Wind Speed 16 mph ()    
Max Wind Speed 23 mph    
Max Gust Speed -    
Visibility 6.2 miles    
Events      
Averages and records for this station are not official NWS values.
T = Trace of Precipitation, MM = Missing Value Source: Averaged Metar Reports

Daily Weather History Graph

Daily Weather History Graph

Search for Another Location

Airport or City:

Astronomy

Aug. 25, 2019 Rise Set
Actual Time 6:22 AM AST 6:47 PM AST
Civil Twilight 6:00 AM AST 7:09 PM AST
Nautical Twilight 5:35 AM AST 7:34 PM AST
Astronomical Twilight 5:10 AM AST 8:00 PM AST
Moon 1:24 AM AST (8/25) 2:31 PM AST (8/25)
Length of Visible Light 13h 08m
Length of Day
12h 25m
Waning Crescent, 29% of the Moon is Illuminated
Aug 25
Waning Crescent
Aug 30
New
Sep 5
First Quarter
Sep 14
Full
Sep 21
Last Quarter

Hourly Weather History & Observations

Time (AST) Temp. Heat Index Dew Point Humidity Pressure Visibility Wind Dir Wind Speed Gust Speed Precip Events Conditions
12:55 AM 82.4 °F 90.9 °F 77.0 °F 84% 29.92 in 6.2 mi East 19.6 mph - N/A   Partly Cloudy
1:55 AM 82.4 °F 89.5 °F 75.2 °F 79% 29.92 in 6.2 mi East 16.1 mph - N/A   Partly Cloudy
2:55 AM 82.4 °F 90.9 °F 77.0 °F 84% 29.89 in 6.2 mi East 16.1 mph - N/A   Mostly Cloudy
3:55 AM 82.4 °F 89.5 °F 75.2 °F 79% 29.89 in 6.2 mi East 17.3 mph - N/A   Scattered Clouds
4:55 AM 82.4 °F 89.5 °F 75.2 °F 79% 29.89 in 6.2 mi East 13.8 mph - N/A   Scattered Clouds
5:55 AM 82.4 °F 89.5 °F 75.2 °F 79% 29.92 in 6.2 mi ESE 11.5 mph - N/A   Scattered Clouds
6:55 AM 82.4 °F 89.5 °F 75.2 °F 79% 29.92 in 6.2 mi East 15.0 mph - N/A   Partly Cloudy
7:55 AM 84.2 °F 92.3 °F 75.2 °F 74% 29.92 in 6.2 mi ESE 16.1 mph - N/A   Mostly Cloudy
8:55 AM 86.0 °F 95.1 °F 75.2 °F 70% 29.95 in 6.2 mi ESE 18.4 mph - N/A   Mostly Cloudy
9:55 AM 86.0 °F 95.1 °F 75.2 °F 70% 29.95 in 6.2 mi East 17.3 mph - N/A   Mostly Cloudy
10:55 AM 87.8 °F 97.6 °F 75.2 °F 66% 29.95 in 6.2 mi ESE 20.7 mph - N/A   Scattered Clouds
11:55 AM 89.6 °F 99.8 °F 75.2 °F 62% 29.95 in 6.2 mi East 20.7 mph - N/A   Scattered Clouds
12:55 PM 89.6 °F 99.8 °F 75.2 °F 62% 29.92 in 6.2 mi East 20.7 mph - N/A   Unknown
1:55 PM 89.6 °F 98.2 °F 73.4 °F 59% 29.89 in 6.2 mi ESE 20.7 mph - N/A   Partly Cloudy
2:55 PM 89.6 °F 99.8 °F 75.2 °F 62% 29.89 in 6.2 mi ESE 19.6 mph - N/A   Scattered Clouds
3:55 PM 89.6 °F 99.8 °F 75.2 °F 62% 29.86 in 6.2 mi East 21.9 mph - N/A   Partly Cloudy
4:55 PM 87.8 °F 97.6 °F 75.2 °F 66% 29.86 in 6.2 mi East 23.0 mph - N/A   Mostly Cloudy
5:55 PM 86.0 °F 95.1 °F 75.2 °F 70% 29.86 in 6.2 mi East 21.9 mph - N/A   Partly Cloudy
6:55 PM 84.2 °F 92.3 °F 75.2 °F 74% 29.86 in 6.2 mi East 20.7 mph - N/A   Partly Cloudy
7:55 PM 84.2 °F 92.3 °F 75.2 °F 74% 29.89 in - East 19.6 mph - N/A   Clear
8:55 PM 84.2 °F 92.3 °F 75.2 °F 74% 29.92 in 6.2 mi East 18.4 mph - N/A   Partly Cloudy
9:55 PM 84.2 °F 92.3 °F 75.2 °F 74% 29.92 in 6.2 mi East 15.0 mph - N/A   Scattered Clouds
10:55 PM 84.2 °F 92.3 °F 75.2 °F 74% 29.95 in 6.2 mi East 17.3 mph - N/A   Partly Cloudy
11:55 PM 84.2 °F 92.3 °F 75.2 °F 74% 29.92 in 6.2 mi East 15.0 mph - N/A   Mostly Cloudy